When you browse on this site, cookies collect data to enhance your experience and personalize the content and advertising you see.
Visit our Privacy Policy to learn more. By continuing to use the site, you agree to this use of cookies and data.
  • în România
  • Lista ţărilor
  • Pe 7 zile
  • Temperatura apei
  • Meteo pe hartă
  • Widget-uri
  • user-avatar
    Intrare

    Meteo pe oră la Guanare

    Astăzi, 12 Decembrie, Joi

    Timp Temperatura Precipitaţii Vânt Presiune Umiditate
    00:00 +24°C° 0 mm 1 m/s 741 mmHg 81%
    01:00 +24°C° 0 mm 1 m/s 740 mmHg 81%
    02:00 +24°C° 0 mm 1 m/s 740 mmHg 81%
    03:00 +23°C° 0 mm 1 m/s 741 mmHg 82%
    04:00 +21°C° 0 mm 0 m/s 741 mmHg 82%
    05:00 +22°C° 0 mm 0 m/s 741 mmHg 80%
    06:00 +22°C° 0 mm 0 m/s 741 mmHg 79%
    07:00 +23°C° 0 mm 0 m/s 741 mmHg 77%
    08:00 +27°C° 0 mm 1 m/s 742 mmHg 70%
    09:00 +29°C° 0 mm 1 m/s 742 mmHg 62%
    10:00 +31°C° 0 mm 1 m/s 742 mmHg 54%
    11:00 +32°C° 0 mm 1 m/s 741 mmHg 53%
    12:00 +34°C° 0 mm 2 m/s 740 mmHg 52%
    13:00 +34°C° 0 mm 2 m/s 740 mmHg 51%
    14:00 +34°C° 0.1 mm 2 m/s 739 mmHg 55%
    15:00 +32°C° 0.1 mm 1 m/s 739 mmHg 59%
    16:00 +32°C° 0.1 mm 1 m/s 738 mmHg 64%
    17:00 +30°C° 0 mm 1 m/s 739 mmHg 70%
    18:00 +28°C° 0 mm 1 m/s 739 mmHg 77%
    19:00 +26°C° 0 mm 1 m/s 739 mmHg 83%
    20:00 +25°C° 0 mm 1 m/s 740 mmHg 84%
    21:00 +25°C° 0 mm 1 m/s 740 mmHg 85%
    22:00 +24°C° 0 mm 1 m/s 741 mmHg 86%
    23:00 +24°C° 0 mm 1 m/s 741 mmHg 87%

    Mâine, 13 Decembrie, Vineri

    Timp Temperatura Precipitaţii Vânt Presiune Umiditate
    00:00 +24°C° 0 mm 1 m/s 740 mmHg 87%
    01:00 +23°C° 0 mm 1 m/s 740 mmHg 87%
    02:00 +23°C° 0 mm 1 m/s 740 mmHg 87%
    03:00 +23°C° 0 mm 1 m/s 740 mmHg 87%
    04:00 +23°C° 0 mm 1 m/s 740 mmHg 86%
    05:00 +23°C° 0 mm 1 m/s 740 mmHg 84%
    06:00 +22°C° 0 mm 0 m/s 740 mmHg 81%
    07:00 +23°C° 0 mm 0 m/s 741 mmHg 79%
    08:00 +27°C° 0 mm 1 m/s 741 mmHg 72%
    09:00 +29°C° 0 mm 1 m/s 742 mmHg 64%
    10:00 +31°C° 0 mm 1 m/s 742 mmHg 57%
    11:00 +31°C° 0 mm 2 m/s 741 mmHg 57%
    12:00 +32°C° 0 mm 2 m/s 740 mmHg 56%
    13:00 +32°C° 0 mm 2 m/s 739 mmHg 56%
    14:00 +31°C° 0.2 mm 2 m/s 739 mmHg 61%
    15:00 +31°C° 0.2 mm 1 m/s 739 mmHg 66%
    16:00 +30°C° 0.2 mm 1 m/s 738 mmHg 71%
    17:00 +29°C° 0.1 mm 1 m/s 739 mmHg 76%
    18:00 +27°C° 0.1 mm 1 m/s 739 mmHg 80%
    19:00 +26°C° 0.1 mm 1 m/s 740 mmHg 84%
    20:00 +25°C° 0 mm 1 m/s 740 mmHg 86%
    21:00 +25°C° 0 mm 1 m/s 740 mmHg 87%
    22:00 +24°C° 0 mm 1 m/s 741 mmHg 88%
    23:00 +24°C° 0 mm 1 m/s 741 mmHg 88%

    Poimâine, 14 Decembrie, Sâmbătă

    Timp Temperatura Precipitaţii Vânt Presiune Umiditate
    00:00 +24°C° 0 mm 1 m/s 740 mmHg 88%
    01:00 +24°C° 0 mm 1 m/s 740 mmHg 88%
    02:00 +24°C° 0 mm 1 m/s 740 mmHg 88%
    03:00 +23°C° 0 mm 1 m/s 740 mmHg 88%
    04:00 +23°C° 0 mm 1 m/s 740 mmHg 88%
    05:00 +24°C° 0 mm 1 m/s 741 mmHg 85%
    06:00 +25°C° 0 mm 1 m/s 741 mmHg 83%
    07:00 +25°C° 0 mm 1 m/s 742 mmHg 80%
    08:00 +27°C° 0 mm 1 m/s 742 mmHg 74%
    09:00 +29°C° 0 mm 1 m/s 742 mmHg 68%
    10:00 +31°C° 0 mm 2 m/s 743 mmHg 61%
    11:00 +31°C° 0.2 mm 2 m/s 742 mmHg 61%
    12:00 +32°C° 0.2 mm 2 m/s 741 mmHg 61%
    13:00 +32°C° 0.2 mm 2 m/s 740 mmHg 61%
    14:00 +32°C° 0.3 mm 1 m/s 739 mmHg 65%
    15:00 +31°C° 0.3 mm 1 m/s 739 mmHg 69%
    16:00 +31°C° 0.3 mm 1 m/s 738 mmHg 73%
    17:00 +29°C° 0.1 mm 1 m/s 739 mmHg 77%
    18:00 +27°C° 0.1 mm 1 m/s 739 mmHg 82%
    19:00 +26°C° 0.1 mm 1 m/s 740 mmHg 87%
    20:00 +25°C° 0.1 mm 1 m/s 740 mmHg 88%
    21:00 +25°C° 0.1 mm 1 m/s 741 mmHg 89%
    22:00 +25°C° 0.1 mm 1 m/s 741 mmHg 90%
    23:00 +25°C° 0 mm 1 m/s 741 mmHg 89%

    15 Decembrie, Duminică

    Timp Temperatura Precipitaţii Vânt Presiune Umiditate
    00:00 +24°C° 0 mm 1 m/s 741 mmHg 89%
    01:00 +24°C° 0 mm 1 m/s 741 mmHg 89%
    02:00 +24°C° 0 mm 1 m/s 741 mmHg 89%
    03:00 +24°C° 0 mm 1 m/s 741 mmHg 89%
    04:00 +24°C° 0 mm 1 m/s 741 mmHg 89%
    05:00 +24°C° 0.1 mm 1 m/s 741 mmHg 88%
    06:00 +25°C° 0.1 mm 1 m/s 742 mmHg 86%
    07:00 +24°C° 0.1 mm 0 m/s 742 mmHg 85%
    08:00 +27°C° 0.4 mm 1 m/s 742 mmHg 82%
    09:00 +28°C° 0.4 mm 1 m/s 743 mmHg 79%
    10:00 +29°C° 0.4 mm 1 m/s 743 mmHg 76%
    11:00 +30°C° 0.8 mm 1 m/s 742 mmHg 74%
    12:00 +30°C° 0.8 mm 1 m/s 741 mmHg 71%
    13:00 +31°C° 0.8 mm 1 m/s 741 mmHg 69%
    14:00 +31°C° 0.3 mm 1 m/s 740 mmHg 70%
    15:00 +31°C° 0.3 mm 1 m/s 740 mmHg 71%
    16:00 +30°C° 0.3 mm 1 m/s 740 mmHg 73%
    17:00 +29°C° 0 mm 1 m/s 740 mmHg 77%
    18:00 +27°C° 0 mm 1 m/s 740 mmHg 82%
    19:00 +26°C° 0 mm 1 m/s 741 mmHg 86%
    20:00 +25°C° 0 mm 1 m/s 741 mmHg 86%
    21:00 +25°C° 0 mm 1 m/s 742 mmHg 86%
    22:00 +24°C° 0 mm 1 m/s 742 mmHg 87%
    23:00 +24°C° 0 mm 1 m/s 742 mmHg 86%

    16 Decembrie, Luni

    Timp Temperatura Precipitaţii Vânt Presiune Umiditate
    00:00 +24°C° 0 mm 1 m/s 741 mmHg 85%
    01:00 +24°C° 0 mm 1 m/s 741 mmHg 84%
    02:00 +24°C° 0 mm 1 m/s 741 mmHg 84%
    03:00 +23°C° 0 mm 1 m/s 741 mmHg 84%
    04:00 +23°C° 0 mm 1 m/s 741 mmHg 83%
    05:00 +24°C° 0 mm 1 m/s 741 mmHg 82%
    06:00 +25°C° 0 mm 1 m/s 742 mmHg 81%
    07:00 +25°C° 0 mm 1 m/s 742 mmHg 79%
    08:00 +27°C° 0.1 mm 1 m/s 742 mmHg 74%
    09:00 +29°C° 0.1 mm 1 m/s 742 mmHg 68%
    10:00 +31°C° 0.1 mm 1 m/s 743 mmHg 63%
    11:00 +32°C° 0.4 mm 1 m/s 742 mmHg 61%
    12:00 +32°C° 0.4 mm 1 m/s 741 mmHg 59%
    13:00 +33°C° 0.4 mm 1 m/s 740 mmHg 56%
    14:00 +32°C° 0.1 mm 1 m/s 740 mmHg 58%
    15:00 +32°C° 0.1 mm 1 m/s 739 mmHg 61%
    16:00 +32°C° 0.1 mm 1 m/s 739 mmHg 63%
    17:00 +30°C° 0 mm 1 m/s 739 mmHg 68%
    18:00 +28°C° 0 mm 1 m/s 740 mmHg 74%
    19:00 +27°C° 0 mm 1 m/s 740 mmHg 79%
    20:00 +26°C° 0 mm 1 m/s 740 mmHg 80%
    21:00 +26°C° 0 mm 1 m/s 741 mmHg 81%
    22:00 +25°C° 0 mm 1 m/s 741 mmHg 82%
    23:00 +25°C° 0 mm 1 m/s 741 mmHg 82%

    17 Decembrie, Marţi

    Timp Temperatura Precipitaţii Vânt Presiune Umiditate
    00:00 +25°C° 0 mm 1 m/s 741 mmHg 83%
    01:00 +24°C° 0 mm 1 m/s 740 mmHg 84%
    02:00 +24°C° 0.1 mm 1 m/s 740 mmHg 86%
    03:00 +24°C° 0.1 mm 1 m/s 740 mmHg 89%
    04:00 +23°C° 0.1 mm 1 m/s 740 mmHg 91%
    05:00 +24°C° 0.1 mm 1 m/s 741 mmHg 90%
    06:00 +24°C° 0.1 mm 1 m/s 741 mmHg 89%
    07:00 +25°C° 0.1 mm 1 m/s 742 mmHg 87%
    08:00 +26°C° 0.1 mm 1 m/s 742 mmHg 84%
    09:00 +27°C° 0.1 mm 1 m/s 742 mmHg 81%
    10:00 +28°C° 0.1 mm 1 m/s 742 mmHg 77%
    11:00 +29°C° 0.2 mm 1 m/s 741 mmHg 72%
    12:00 +30°C° 0.2 mm 1 m/s 741 mmHg 66%
    13:00 +31°C° 0.2 mm 2 m/s 740 mmHg 61%
    14:00 +31°C° 0.2 mm 1 m/s 739 mmHg 63%
    15:00 +31°C° 0.2 mm 1 m/s 739 mmHg 66%
    16:00 +30°C° 0.2 mm 1 m/s 738 mmHg 68%
    17:00 +29°C° 0 mm 1 m/s 738 mmHg 73%
    18:00 +27°C° 0 mm 1 m/s 739 mmHg 78%
    19:00 +26°C° 0 mm 1 m/s 739 mmHg 83%
    20:00 +25°C° 0 mm 1 m/s 740 mmHg 82%
    21:00 +25°C° 0 mm 1 m/s 740 mmHg 82%
    22:00 +25°C° 0 mm 1 m/s 741 mmHg 81%
    23:00 +25°C° 0 mm 1 m/s 740 mmHg 80%
    Arată mai mult